Time,TemperatureF,DewpointF,PressureIn,WindDirection,WindDirectionDegrees,WindSpeedMPH,WindSpeedGustMPH,Humidity,HourlyPrecipIn,Conditions,Clouds,dailyrainin,SoftwareType,DateUTC
2013-06-11 00:01:00,62.2,61.6,29.82,West,260,0.0,0.0,98,0.00,,---,0.00,VWS V14.01,2013-06-11 04:01:00,
2013-06-11 00:02:00,62.2,61.6,29.82,West,260,0.0,0.0,98,0.00,,---,0.00,VWS V14.01,2013-06-11 04:02:00,
2013-06-11 00:03:00,62.2,61.6,29.82,West,260,0.0,0.0,98,0.00,,---,0.00,VWS V14.01,2013-06-11 04:03:00,
2013-06-11 00:07:00,62.0,61.1,29.82,West,260,0.0,0.0,97,0.00,,---,0.00,VWS V14.01,2013-06-11 04:07:00,
2013-06-11 00:08:00,62.0,61.1,29.82,West,260,0.0,0.0,97,0.00,,---,0.00,VWS V14.01,2013-06-11 04:08:00,
2013-06-11 00:13:00,62.0,61.1,29.82,West,260,0.0,0.0,97,0.00,,---,0.00,VWS V14.01,2013-06-11 04:13:00,
2013-06-11 00:18:00,61.8,61.2,29.82,West,260,0.0,0.0,98,0.00,,---,0.00,VWS V14.01,2013-06-11 04:18:00,
2013-06-11 00:23:00,61.6,61.1,29.82,West,260,0.0,0.0,98,0.00,,---,0.00,VWS V14.01,2013-06-11 04:23:00,
2013-06-11 00:29:00,61.5,60.9,29.82,West,260,0.0,0.0,98,0.00,,---,0.00,VWS V14.01,2013-06-11 04:29:00,
2013-06-11 00:34:00,61.6,61.1,29.82,West,260,0.0,0.0,98,0.00,,---,0.00,VWS V14.01,2013-06-11 04:34:00,
2013-06-11 00:39:00,61.5,60.9,29.82,West,260,0.0,0.0,98,0.00,,---,0.00,VWS V14.01,2013-06-11 04:39:00,
2013-06-11 00:44:00,61.3,60.7,29.82,West,260,0.0,0.0,98,0.00,,---,0.00,VWS V14.01,2013-06-11 04:44:00,
2013-06-11 00:49:00,61.3,60.7,29.82,West,260,0.0,0.0,98,0.00,,---,0.00,VWS V14.01,2013-06-11 04:49:00,
2013-06-11 00:54:00,61.1,60.5,29.82,West,260,0.0,0.0,98,0.00,,---,0.00,VWS V14.01,2013-06-11 04:54:00,
2013-06-11 00:59:00,61.1,60.5,29.82,West,260,0.0,0.0,98,0.00,,---,0.00,VWS V14.01,2013-06-11 04:59:00,
2013-06-11 01:04:00,61.1,60.5,29.82,West,260,0.0,0.0,98,0.00,,---,0.00,VWS V14.01,2013-06-11 05:04:00,
2013-06-11 01:10:00,60.9,60.3,29.85,West,260,0.0,0.0,98,0.00,,---,0.00,VWS V14.01,2013-06-11 05:10:00,
2013-06-11 01:15:00,60.9,60.3,29.85,West,260,0.0,0.0,98,0.00,,---,0.00,VWS V14.01,2013-06-11 05:15:00,
2013-06-11 01:20:00,60.9,60.3,29.82,West,260,0.0,0.0,98,0.00,,---,0.00,VWS V14.01,2013-06-11 05:20:00,
2013-06-11 01:25:00,60.9,60.3,29.82,West,260,0.0,0.0,98,0.00,,---,0.00,VWS V14.01,2013-06-11 05:25:00,
2013-06-11 01:30:00,60.7,60.2,29.82,West,260,0.0,0.0,98,0.00,,---,0.00,VWS V14.01,2013-06-11 05:30:00,
2013-06-11 01:35:00,60.7,60.2,29.85,West,260,0.0,0.0,98,0.00,,---,0.00,VWS V14.01,2013-06-11 05:35:00,
2013-06-11 01:40:00,60.7,60.2,29.85,West,260,0.0,0.0,98,0.00,,---,0.00,VWS V14.01,2013-06-11 05:40:00,
2013-06-11 01:46:00,60.7,60.2,29.85,West,260,0.0,0.0,98,0.00,,---,0.00,VWS V14.01,2013-06-11 05:46:00,
2013-06-11 01:51:00,60.6,60.0,29.85,West,260,0.0,0.0,98,0.00,,---,0.00,VWS V14.01,2013-06-11 05:51:00,
2013-06-11 01:56:00,60.4,59.8,29.85,West,260,0.0,0.0,98,0.00,,---,0.00,VWS V14.01,2013-06-11 05:56:00,
2013-06-11 02:01:00,60.4,59.8,29.85,West,260,0.0,0.0,98,0.00,,---,0.00,VWS V14.01,2013-06-11 06:01:00,
2013-06-11 02:06:00,60.4,59.8,29.85,West,260,0.0,0.0,98,0.00,,---,0.00,VWS V14.01,2013-06-11 06:06:00,
2013-06-11 02:11:00,60.4,59.8,29.85,West,260,0.0,0.0,98,0.00,,---,0.00,VWS V14.01,2013-06-11 06:11:00,
2013-06-11 02:16:00,60.2,59.6,29.85,West,260,0.0,0.0,98,0.00,,---,0.00,VWS V14.01,2013-06-11 06:16:00,
2013-06-11 02:21:00,60.2,59.6,29.85,West,260,0.0,0.0,98,0.00,,---,0.00,VWS V14.01,2013-06-11 06:21:00,
2013-06-11 02:26:00,60.0,59.5,29.85,West,260,0.0,0.0,98,0.00,,---,0.00,VWS V14.01,2013-06-11 06:26:00,
2013-06-11 02:32:00,60.0,59.5,29.85,West,260,0.0,0.0,98,0.00,,---,0.00,VWS V14.01,2013-06-11 06:32:00,
2013-06-11 02:37:00,60.0,59.5,29.85,West,260,0.0,0.0,98,0.00,,---,0.00,VWS V14.01,2013-06-11 06:37:00,
2013-06-11 02:42:00,60.0,59.5,29.85,West,260,0.0,0.0,98,0.00,,---,0.00,VWS V14.01,2013-06-11 06:42:00,
2013-06-11 02:47:00,59.8,59.3,29.85,West,260,0.0,0.0,98,0.00,,---,0.00,VWS V14.01,2013-06-11 06:47:00,
2013-06-11 02:52:00,59.8,59.3,29.85,West,260,0.0,0.0,98,0.00,,---,0.00,VWS V14.01,2013-06-11 06:52:00,
2013-06-11 02:57:00,59.8,59.3,29.85,West,260,0.0,0.0,98,0.00,,---,0.00,VWS V14.01,2013-06-11 06:57:00,
2013-06-11 03:02:00,59.7,59.1,29.85,West,260,0.0,0.0,98,0.00,,---,0.00,VWS V14.01,2013-06-11 07:02:00,
2013-06-11 03:07:00,59.7,59.1,29.85,West,260,0.0,0.0,98,0.00,,---,0.00,VWS V14.01,2013-06-11 07:07:00,
2013-06-11 03:12:00,59.5,58.9,29.82,West,260,0.0,0.0,98,0.00,,---,0.00,VWS V14.01,2013-06-11 07:12:00,
2013-06-11 03:17:00,59.5,58.9,29.85,West,260,0.0,0.0,98,0.00,,---,0.00,VWS V14.01,2013-06-11 07:17:00,
2013-06-11 03:22:00,59.5,58.9,29.85,West,260,0.0,0.0,98,0.00,,---,0.00,VWS V14.01,2013-06-11 07:22:00,
2013-06-11 03:27:00,59.3,58.7,29.85,West,260,0.0,0.0,98,0.00,,---,0.00,VWS V14.01,2013-06-11 07:27:00,
2013-06-11 03:33:00,59.3,58.7,29.85,West,260,0.0,0.0,98,0.00,,---,0.00,VWS V14.01,2013-06-11 07:33:00,
2013-06-11 03:38:00,59.1,58.6,29.85,West,260,0.0,0.0,98,0.00,,---,0.00,VWS V14.01,2013-06-11 07:38:00,
2013-06-11 03:43:00,59.3,58.7,29.85,West,260,0.0,0.0,98,0.00,,---,0.00,VWS V14.01,2013-06-11 07:43:00,
2013-06-11 03:48:00,59.3,58.7,29.85,West,260,0.0,0.0,98,0.00,,---,0.00,VWS V14.01,2013-06-11 07:48:00,
2013-06-11 03:53:00,59.1,58.6,29.85,West,260,0.0,0.0,98,0.00,,---,0.00,VWS V14.01,2013-06-11 07:53:00,
2013-06-11 03:58:00,59.1,58.6,29.85,West,260,0.0,0.0,98,0.00,,---,0.00,VWS V14.01,2013-06-11 07:58:00,
2013-06-11 04:04:00,59.1,58.6,29.85,West,260,0.0,0.0,98,0.00,,---,0.00,VWS V14.01,2013-06-11 08:04:00,
2013-06-11 04:09:00,59.1,58.6,29.85,West,260,0.0,0.0,98,0.00,,---,0.00,VWS V14.01,2013-06-11 08:09:00,
2013-06-11 04:14:00,59.1,58.6,29.85,West,260,0.0,0.0,98,0.00,,---,0.00,VWS V14.01,2013-06-11 08:14:00,
2013-06-11 04:19:00,59.1,58.6,29.85,West,260,3.0,3.0,98,0.00,,---,0.00,VWS V14.01,2013-06-11 08:19:00,
2013-06-11 04:24:00,59.1,58.6,29.85,West,260,3.0,3.0,98,0.00,,---,0.00,VWS V14.01,2013-06-11 08:24:00,
2013-06-11 04:29:00,59.1,58.6,29.85,West,260,3.6,3.6,98,0.00,,---,0.00,VWS V14.01,2013-06-11 08:29:00,
2013-06-11 04:34:00,59.1,58.6,29.85,West,260,3.6,3.6,98,0.00,,---,0.00,VWS V14.01,2013-06-11 08:34:00,
2013-06-11 04:39:00,59.1,58.6,29.85,West,260,3.6,3.6,98,0.00,,---,0.00,VWS V14.01,2013-06-11 08:39:00,
2013-06-11 04:44:00,58.9,58.4,29.85,WNW,282,0.0,3.6,98,0.00,,---,0.00,VWS V14.01,2013-06-11 08:44:00,
2013-06-11 04:49:00,59.1,58.6,29.85,WNW,282,0.0,0.0,98,0.00,,---,0.00,VWS V14.01,2013-06-11 08:49:00,
2013-06-11 04:54:00,58.9,58.4,29.85,West,260,3.0,3.0,98,0.00,,---,0.00,VWS V14.01,2013-06-11 08:54:00,
2013-06-11 04:59:00,58.8,58.2,29.85,West,260,3.0,3.0,98,0.00,,---,0.00,VWS V14.01,2013-06-11 08:59:00,
2013-06-11 05:04:00,58.8,58.2,29.85,West,260,3.0,3.0,98,0.00,,---,0.00,VWS V14.01,2013-06-11 09:04:00,
2013-06-11 05:10:00,58.8,58.2,29.85,West,260,3.0,3.0,98,0.00,,---,0.00,VWS V14.01,2013-06-11 09:10:00,
2013-06-11 05:15:00,58.8,58.2,29.85,West,260,1.7,3.0,98,0.00,,---,0.00,VWS V14.01,2013-06-11 09:15:00,
2013-06-11 05:20:00,58.8,58.2,29.85,West,260,1.7,1.7,98,0.00,,---,0.00,VWS V14.01,2013-06-11 09:20:00,
2013-06-11 05:25:00,58.6,58.0,29.85,West,260,1.7,1.7,98,0.00,,---,0.00,VWS V14.01,2013-06-11 09:25:00,
2013-06-11 05:30:00,58.6,58.0,29.85,West,260,1.7,1.7,98,0.00,,---,0.00,VWS V14.01,2013-06-11 09:30:00,
2013-06-11 05:35:00,58.6,58.0,29.85,West,260,1.7,1.7,98,0.00,,---,0.00,VWS V14.01,2013-06-11 09:35:00,
2013-06-11 05:40:00,58.6,58.0,29.85,West,260,1.7,1.7,98,0.00,,---,0.00,VWS V14.01,2013-06-11 09:40:00,
2013-06-11 05:45:00,58.6,58.0,29.85,West,260,1.7,1.7,98,0.00,,---,0.00,VWS V14.01,2013-06-11 09:45:00,
2013-06-11 05:50:00,58.6,58.0,29.85,West,260,1.7,1.7,98,0.00,,---,0.00,VWS V14.01,2013-06-11 09:50:00,
2013-06-11 05:55:00,58.4,57.8,29.85,WNW,282,4.0,4.0,98,0.00,,---,0.00,VWS V14.01,2013-06-11 09:55:00,
2013-06-11 06:00:00,58.4,57.8,29.85,West,260,1.3,1.3,98,0.00,,---,0.00,VWS V14.01,2013-06-11 10:00:00,
2013-06-11 06:06:00,58.4,57.8,29.88,West,260,1.3,1.3,98,0.00,,---,0.00,VWS V14.01,2013-06-11 10:06:00,
2013-06-11 06:11:00,58.4,57.8,29.88,West,260,1.3,1.3,98,0.00,,---,0.00,VWS V14.01,2013-06-11 10:11:00,
2013-06-11 06:16:00,58.4,57.8,29.88,West,260,1.3,1.3,98,0.00,,---,0.00,VWS V14.01,2013-06-11 10:16:00,
2013-06-11 06:21:00,58.4,57.8,29.88,West,260,1.3,1.3,98,0.00,,---,0.00,VWS V14.01,2013-06-11 10:21:00,
2013-06-11 06:27:00,58.4,57.8,29.88,West,260,1.3,1.3,98,0.00,,---,0.00,VWS V14.01,2013-06-11 10:27:00,
2013-06-11 06:32:00,58.2,57.7,29.88,West,260,1.3,1.3,98,0.00,,---,0.00,VWS V14.01,2013-06-11 10:32:00,
2013-06-11 06:37:00,58.2,57.7,29.88,West,260,1.3,1.3,98,0.00,,---,0.00,VWS V14.01,2013-06-11 10:37:00,
2013-06-11 06:42:00,58.2,57.7,29.88,West,260,1.3,1.3,98,0.00,,---,0.00,VWS V14.01,2013-06-11 10:42:00,
2013-06-11 06:47:00,58.2,57.7,29.88,West,260,1.3,1.3,98,0.00,,---,0.00,VWS V14.01,2013-06-11 10:47:00,
2013-06-11 06:53:00,58.2,57.7,29.88,West,260,1.3,1.3,98,0.00,,---,0.00,VWS V14.01,2013-06-11 10:53:00,
2013-06-11 06:58:00,58.2,57.7,29.88,West,260,1.3,1.3,98,0.00,,---,0.00,VWS V14.01,2013-06-11 10:58:00,
2013-06-11 07:03:00,58.2,57.7,29.88,West,260,1.3,1.3,98,0.00,,---,0.00,VWS V14.01,2013-06-11 11:03:00,
2013-06-11 07:08:00,58.2,57.7,29.88,West,260,1.3,1.3,98,0.00,,---,0.00,VWS V14.01,2013-06-11 11:08:00,
2013-06-11 07:13:00,58.2,57.7,29.88,West,260,1.3,1.3,98,0.00,,---,0.00,VWS V14.01,2013-06-11 11:13:00,
2013-06-11 07:18:00,58.4,57.8,29.91,West,260,1.3,1.3,98,0.00,,---,0.00,VWS V14.01,2013-06-11 11:18:00,
2013-06-11 07:23:00,58.6,58.0,29.91,West,260,1.3,1.3,98,0.00,,---,0.00,VWS V14.01,2013-06-11 11:23:00,
2013-06-11 07:28:00,58.6,58.0,29.91,West,260,3.0,3.0,98,0.00,,---,0.00,VWS V14.01,2013-06-11 11:28:00,
2013-06-11 07:34:00,58.6,58.0,29.88,West,260,3.0,3.0,98,0.00,,---,0.00,VWS V14.01,2013-06-11 11:34:00,
2013-06-11 07:39:00,58.8,58.2,29.88,West,260,3.0,3.0,98,0.00,,---,0.00,VWS V14.01,2013-06-11 11:39:00,
2013-06-11 07:44:00,58.8,58.2,29.88,NW,305,0.0,0.0,98,0.00,,---,0.00,VWS V14.01,2013-06-11 11:44:00,
2013-06-11 07:49:00,58.8,58.2,29.88,NW,305,2.0,2.0,98,0.00,,---,0.00,VWS V14.01,2013-06-11 11:49:00,
2013-06-11 07:54:00,58.9,58.4,29.88,NW,305,4.6,4.6,98,0.00,,---,0.00,VWS V14.01,2013-06-11 11:54:00,
2013-06-11 07:59:00,58.9,58.4,29.88,WNW,282,1.7,2.0,98,0.00,,---,0.00,VWS V14.01,2013-06-11 11:59:00,
2013-06-11 08:04:00,58.9,58.4,29.91,West,260,5.0,5.0,98,0.00,,---,0.00,VWS V14.01,2013-06-11 12:04:00,
2013-06-11 08:09:00,59.1,58.6,29.91,NW,305,2.3,2.3,98,0.00,,---,0.00,VWS V14.01,2013-06-11 12:09:00,
2013-06-11 08:14:00,59.1,58.6,29.91,West,260,0.0,0.0,98,0.00,,---,0.00,VWS V14.01,2013-06-11 12:14:00,
2013-06-11 08:20:00,59.3,58.7,29.91,NW,305,1.7,1.7,98,0.00,,---,0.00,VWS V14.01,2013-06-11 12:20:00,
2013-06-11 08:25:00,59.5,58.9,29.91,NW,305,1.7,1.7,98,0.00,,---,0.00,VWS V14.01,2013-06-11 12:25:00,
2013-06-11 08:30:00,59.7,59.1,29.91,NW,305,1.7,1.7,98,0.00,,---,0.00,VWS V14.01,2013-06-11 12:30:00,
2013-06-11 08:35:00,59.7,59.1,29.91,WNW,282,0.0,0.0,98,0.00,,---,0.00,VWS V14.01,2013-06-11 12:35:00,
2013-06-11 08:40:00,59.8,59.3,29.91,West,260,1.7,1.7,98,0.00,,---,0.00,VWS V14.01,2013-06-11 12:40:00,
2013-06-11 08:45:00,60.0,59.5,29.91,West,260,1.7,1.7,98,0.00,,---,0.00,VWS V14.01,2013-06-11 12:45:00,
2013-06-11 08:50:00,60.2,59.6,29.91,West,260,1.7,1.7,98,0.00,,---,0.00,VWS V14.01,2013-06-11 12:50:00,
2013-06-11 08:55:00,60.4,59.8,29.91,West,260,1.7,1.7,98,0.00,,---,0.00,VWS V14.01,2013-06-11 12:55:00,
2013-06-11 09:00:00,60.6,60.0,29.91,West,260,1.7,1.7,98,0.00,,---,0.00,VWS V14.01,2013-06-11 13:00:00,
2013-06-11 09:05:00,60.9,60.3,29.91,West,260,1.7,1.7,98,0.00,,---,0.00,VWS V14.01,2013-06-11 13:05:00,
2013-06-11 09:10:00,61.1,60.5,29.91,West,260,1.7,1.7,98,0.00,,---,0.00,VWS V14.01,2013-06-11 13:10:00,
2013-06-11 09:15:00,61.1,60.5,29.91,West,260,3.3,3.3,98,0.00,,---,0.00,VWS V14.01,2013-06-11 13:15:00,
2013-06-11 09:20:00,61.1,60.5,29.91,West,260,0.0,1.7,98,0.00,,---,0.00,VWS V14.01,2013-06-11 13:20:00,
2013-06-11 09:26:00,61.5,60.9,29.91,West,260,0.0,0.0,98,0.00,,---,0.00,VWS V14.01,2013-06-11 13:26:00,
2013-06-11 09:31:00,61.6,61.1,29.91,SE,125,0.0,1.3,98,0.00,,---,0.00,VWS V14.01,2013-06-11 13:31:00,
2013-06-11 09:36:00,61.6,61.1,29.91,SW,215,1.7,2.0,98,0.00,,---,0.00,VWS V14.01,2013-06-11 13:36:00,
2013-06-11 09:41:00,62.2,61.6,29.91,SW,215,3.6,4.3,98,0.00,,---,0.00,VWS V14.01,2013-06-11 13:41:00,
2013-06-11 09:46:00,62.5,62.0,29.91,West,260,3.6,3.6,98,0.00,,---,0.00,VWS V14.01,2013-06-11 13:46:00,
2013-06-11 09:51:00,62.5,62.0,29.91,NW,305,4.6,4.6,98,0.00,,---,0.00,VWS V14.01,2013-06-11 13:51:00,
2013-06-11 09:56:00,62.5,62.0,29.91,NW,305,1.3,1.3,98,0.00,,---,0.00,VWS V14.01,2013-06-11 13:56:00,
2013-06-11 10:01:00,63.1,62.5,29.91,WSW,238,4.3,4.3,98,0.00,,---,0.00,VWS V14.01,2013-06-11 14:01:00,
2013-06-11 10:07:00,63.3,62.7,29.91,NW,305,0.0,4.3,98,0.00,,---,0.00,VWS V14.01,2013-06-11 14:07:00,
2013-06-11 10:12:00,63.4,62.9,29.91,West,260,3.0,3.0,98,0.00,,---,0.00,VWS V14.01,2013-06-11 14:12:00,
2013-06-11 10:17:00,63.6,63.0,29.91,West,260,3.6,5.0,98,0.00,,---,0.00,VWS V14.01,2013-06-11 14:17:00,
2013-06-11 10:22:00,63.8,62.9,29.91,NW,305,3.0,3.0,97,0.00,,---,0.00,VWS V14.01,2013-06-11 14:22:00,
2013-06-11 10:27:00,64.2,63.3,29.91,NW,305,2.0,5.6,97,0.00,,---,0.00,VWS V14.01,2013-06-11 14:27:00,
2013-06-11 10:32:00,64.2,63.3,29.91,West,260,3.0,3.0,97,0.00,,---,0.00,VWS V14.01,2013-06-11 14:32:00,
2013-06-11 10:37:00,64.3,63.5,29.91,West,260,1.7,1.7,97,0.00,,---,0.00,VWS V14.01,2013-06-11 14:37:00,
2013-06-11 10:42:00,64.5,63.7,29.91,North,350,2.0,2.0,97,0.00,,---,0.00,VWS V14.01,2013-06-11 14:42:00,
2013-06-11 10:47:00,64.9,64.0,29.91,North,350,0.0,0.0,97,0.00,,---,0.00,VWS V14.01,2013-06-11 14:47:00,
2013-06-11 10:52:00,65.1,64.2,29.91,NW,305,3.0,3.6,97,0.00,,---,0.00,VWS V14.01,2013-06-11 14:52:00,
2013-06-11 10:58:00,65.2,64.4,29.91,West,260,3.6,3.6,97,0.00,,---,0.00,VWS V14.01,2013-06-11 14:58:00,
2013-06-11 11:03:00,65.4,64.6,29.91,NW,305,2.0,6.0,97,0.00,,---,0.00,VWS V14.01,2013-06-11 15:03:00,
2013-06-11 11:08:00,65.8,64.6,29.91,North,350,4.0,4.0,96,0.00,,---,0.00,VWS V14.01,2013-06-11 15:08:00,
2013-06-11 11:13:00,66.0,64.8,29.91,NW,305,1.3,1.3,96,0.00,,---,0.00,VWS V14.01,2013-06-11 15:13:00,
2013-06-11 11:18:00,66.3,64.8,29.91,SW,215,5.0,5.0,95,0.00,,---,0.00,VWS V14.01,2013-06-11 15:18:00,
2013-06-11 11:23:00,66.5,65.0,29.91,North,350,0.0,0.0,95,0.00,,---,0.00,VWS V14.01,2013-06-11 15:23:00,
2013-06-11 11:28:00,66.7,65.2,29.91,ENE,58,0.0,0.0,95,0.00,,---,0.00,VWS V14.01,2013-06-11 15:28:00,
2013-06-11 11:33:00,67.0,65.6,29.91,NW,305,0.0,0.0,95,0.00,,---,0.00,VWS V14.01,2013-06-11 15:33:00,
2013-06-11 11:39:00,67.4,65.6,29.91,East,80,1.7,1.7,94,0.00,,---,0.00,VWS V14.01,2013-06-11 15:39:00,
2013-06-11 11:44:00,67.8,66.0,29.91,West,260,0.0,0.0,94,0.00,,---,0.00,VWS V14.01,2013-06-11 15:44:00,
2013-06-11 11:49:00,68.3,66.5,29.91,West,260,0.0,2.3,94,0.00,,---,0.00,VWS V14.01,2013-06-11 15:49:00,
2013-06-11 11:54:00,68.7,66.9,29.91,NW,305,0.0,3.6,94,0.00,,---,0.00,VWS V14.01,2013-06-11 15:54:00,
2013-06-11 11:59:00,68.8,67.1,29.91,NW,305,1.3,2.3,94,0.00,,---,0.00,VWS V14.01,2013-06-11 15:59:00,
2013-06-11 12:04:00,69.2,67.1,29.91,SW,215,3.0,3.0,93,0.00,,---,0.00,VWS V14.01,2013-06-11 16:04:00,
2013-06-11 12:09:00,69.6,67.1,29.91,West,260,4.0,4.0,92,0.00,,---,0.00,VWS V14.01,2013-06-11 16:09:00,
2013-06-11 12:14:00,69.6,67.1,29.91,West,260,4.0,4.0,92,0.00,,---,0.00,VWS V14.01,2013-06-11 16:14:00,
2013-06-11 12:20:00,70.5,67.7,29.91,SW,215,2.3,2.3,91,0.00,,---,0.00,VWS V14.01,2013-06-11 16:20:00,
2013-06-11 12:25:00,71.0,67.9,29.91,NW,305,0.0,0.0,90,0.00,,---,0.00,VWS V14.01,2013-06-11 16:25:00,
2013-06-11 12:30:00,71.2,68.4,29.91,WNW,282,0.0,0.0,91,0.00,,---,0.00,VWS V14.01,2013-06-11 16:30:00,
2013-06-11 12:35:00,70.8,67.4,29.91,WNW,282,0.0,0.0,89,0.00,,---,0.00,VWS V14.01,2013-06-11 16:35:00,
2013-06-11 12:40:00,71.2,67.1,29.91,WNW,282,0.0,0.0,87,0.00,,---,0.00,VWS V14.01,2013-06-11 16:40:00,
2013-06-11 12:45:00,71.7,68.3,29.91,West,260,2.0,3.0,89,0.00,,---,0.00,VWS V14.01,2013-06-11 16:45:00,
2013-06-11 12:50:00,72.3,68.2,29.91,NW,305,2.3,2.3,87,0.00,,---,0.00,VWS V14.01,2013-06-11 16:50:00,
2013-06-11 12:56:00,72.8,68.7,29.91,NW,305,3.3,3.3,87,0.00,,---,0.00,VWS V14.01,2013-06-11 16:56:00,
2013-06-11 13:01:00,72.3,67.8,29.91,WSW,238,5.6,5.6,86,0.00,,---,0.00,VWS V14.01,2013-06-11 17:01:00,
2013-06-11 13:06:00,72.8,68.0,29.91,West,260,3.0,3.0,85,0.00,,---,0.00,VWS V14.01,2013-06-11 17:06:00,
2013-06-11 13:11:00,73.0,68.9,29.91,NW,305,1.7,1.7,87,0.00,,---,0.00,VWS V14.01,2013-06-11 17:11:00,
2013-06-11 13:16:00,73.2,68.7,29.91,SW,215,4.0,4.0,86,0.00,,---,0.00,VWS V14.01,2013-06-11 17:16:00,
2013-06-11 13:21:00,74.6,67.3,29.91,SW,215,3.3,3.6,78,0.00,,---,0.00,VWS V14.01,2013-06-11 17:21:00,
2013-06-11 13:27:00,74.6,69.1,29.91,West,260,4.6,4.6,83,0.00,,---,0.00,VWS V14.01,2013-06-11 17:27:00,
2013-06-11 13:33:00,73.7,68.2,29.91,NW,305,2.0,4.6,83,0.00,,---,0.00,VWS V14.01,2013-06-11 17:33:00,
2013-06-11 13:38:00,74.4,68.9,29.91,NW,305,2.0,2.0,83,0.00,,---,0.00,VWS V14.01,2013-06-11 17:38:00,
2013-06-11 13:43:00,76.0,69.8,29.91,NW,305,2.0,2.0,81,0.00,,---,0.00,VWS V14.01,2013-06-11 17:43:00,
2013-06-11 13:48:00,76.8,69.8,29.88,SW,215,4.6,4.6,79,0.00,,---,0.00,VWS V14.01,2013-06-11 17:48:00,
2013-06-11 13:53:00,75.9,67.4,29.88,SW,215,4.6,4.6,75,0.00,,---,0.00,VWS V14.01,2013-06-11 17:53:00,
2013-06-11 13:58:00,76.4,68.7,29.88,West,260,5.3,5.3,77,0.00,,---,0.00,VWS V14.01,2013-06-11 17:58:00,
2013-06-11 14:03:00,76.9,68.4,29.88,NW,305,1.7,5.3,75,0.00,,---,0.00,VWS V14.01,2013-06-11 18:03:00,
2013-06-11 14:08:00,77.3,69.5,29.88,NW,305,1.7,1.7,77,0.00,,---,0.00,VWS V14.01,2013-06-11 18:08:00,
2013-06-11 14:13:00,76.4,69.0,29.88,West,260,4.3,4.3,78,0.00,,---,0.00,VWS V14.01,2013-06-11 18:13:00,
2013-06-11 14:19:00,76.4,68.7,29.88,NW,305,1.7,1.7,77,0.00,,---,0.00,VWS V14.01,2013-06-11 18:19:00,
2013-06-11 14:24:00,76.6,68.8,29.88,SW,215,0.0,3.6,77,0.00,,---,0.00,VWS V14.01,2013-06-11 18:24:00,
2013-06-11 14:29:00,77.3,69.9,29.88,SW,215,0.0,0.0,78,0.00,,---,0.00,VWS V14.01,2013-06-11 18:29:00,
2013-06-11 14:34:00,77.7,69.9,29.88,NW,305,2.0,2.0,77,0.00,,---,0.00,VWS V14.01,2013-06-11 18:34:00,
2013-06-11 14:39:00,77.5,69.3,29.88,NW,305,1.3,1.3,76,0.00,,---,0.00,VWS V14.01,2013-06-11 18:39:00,
2013-06-11 14:44:00,77.1,69.0,29.88,North,350,2.0,2.0,76,0.00,,---,0.00,VWS V14.01,2013-06-11 18:44:00,
2013-06-11 14:49:00,77.3,68.8,29.88,North,350,2.0,2.0,75,0.00,,---,0.00,VWS V14.01,2013-06-11 18:49:00,
2013-06-11 14:54:00,78.0,68.7,29.88,North,350,2.0,2.0,73,0.00,,---,0.00,VWS V14.01,2013-06-11 18:54:00,
2013-06-11 15:00:00,78.2,66.8,29.88,North,350,2.0,2.0,68,0.00,,---,0.00,VWS V14.01,2013-06-11 19:00:00,
2013-06-11 15:05:00,77.5,66.9,29.88,North,350,2.0,2.0,70,0.00,,---,0.00,VWS V14.01,2013-06-11 19:05:00,
2013-06-11 15:10:00,78.2,68.8,29.88,SW,215,2.0,2.0,73,0.00,,---,0.00,VWS V14.01,2013-06-11 19:10:00,
2013-06-11 15:15:00,77.8,69.7,29.88,SW,215,2.0,2.0,76,0.00,,---,0.00,VWS V14.01,2013-06-11 19:15:00,
2013-06-11 15:20:00,78.6,67.6,29.88,SW,215,2.0,2.0,69,0.00,,---,0.00,VWS V14.01,2013-06-11 19:20:00,
2013-06-11 15:25:00,78.0,68.3,29.88,SW,215,2.0,2.0,72,0.00,,---,0.00,VWS V14.01,2013-06-11 19:25:00,
2013-06-11 15:30:00,78.4,66.9,29.88,NW,305,8.3,8.3,68,0.00,,---,0.00,VWS V14.01,2013-06-11 19:30:00,
2013-06-11 15:35:00,78.6,68.4,29.88,West,260,1.7,4.6,71,0.00,,---,0.00,VWS V14.01,2013-06-11 19:35:00,
2013-06-11 15:40:00,78.4,66.9,29.88,West,260,1.7,1.7,68,0.00,,---,0.00,VWS V14.01,2013-06-11 19:40:00,
2013-06-11 15:45:00,77.7,66.7,29.88,West,260,1.7,1.7,69,0.00,,---,0.00,VWS V14.01,2013-06-11 19:45:00,
2013-06-11 15:50:00,77.7,67.1,29.85,West,260,1.7,1.7,70,0.00,,---,0.00,VWS V14.01,2013-06-11 19:50:00,
2013-06-11 15:56:00,78.0,66.6,29.85,West,260,1.7,1.7,68,0.00,,---,0.00,VWS V14.01,2013-06-11 19:56:00,
2013-06-11 16:01:00,77.5,65.7,29.85,SW,215,5.6,5.6,67,0.00,,---,0.00,VWS V14.01,2013-06-11 20:01:00,
2013-06-11 16:06:00,77.7,65.8,29.85,SW,215,5.6,5.6,67,0.00,,---,0.00,VWS V14.01,2013-06-11 20:06:00,
2013-06-11 16:11:00,76.9,66.0,29.85,SW,215,5.6,5.6,69,0.00,,---,0.00,VWS V14.01,2013-06-11 20:11:00,
2013-06-11 16:16:00,76.8,65.8,29.85,SW,215,5.6,5.6,69,0.00,,---,0.00,VWS V14.01,2013-06-11 20:16:00,
2013-06-11 16:21:00,77.7,66.7,29.88,SW,215,5.6,5.6,69,0.00,,---,0.00,VWS V14.01,2013-06-11 20:21:00,
2013-06-11 16:26:00,77.5,66.5,29.88,SW,215,5.6,5.6,69,0.00,,---,0.00,VWS V14.01,2013-06-11 20:26:00,
2013-06-11 16:31:00,77.1,66.2,29.85,SW,215,5.6,5.6,69,0.00,,---,0.00,VWS V14.01,2013-06-11 20:31:00,
2013-06-11 16:36:00,77.3,66.3,29.85,SW,215,5.6,5.6,69,0.00,,---,0.00,VWS V14.01,2013-06-11 20:36:00,
2013-06-11 16:41:00,78.0,67.0,29.85,SW,215,5.6,5.6,69,0.00,,---,0.00,VWS V14.01,2013-06-11 20:41:00,
2013-06-11 16:46:00,78.2,66.4,29.85,SW,215,5.6,5.6,67,0.00,,---,0.00,VWS V14.01,2013-06-11 20:46:00,
2013-06-11 16:51:00,78.0,65.3,29.85,SW,215,5.6,5.6,65,0.00,,---,0.00,VWS V14.01,2013-06-11 20:51:00,
2013-06-11 16:57:00,77.5,66.1,29.85,SW,215,5.6,5.6,68,0.00,,---,0.00,VWS V14.01,2013-06-11 20:57:00,
2013-06-11 17:02:00,78.0,66.2,29.85,SW,215,5.6,5.6,67,0.00,,---,0.00,VWS V14.01,2013-06-11 21:02:00,
2013-06-11 17:07:00,77.3,66.3,29.85,West,260,0.0,0.0,69,0.00,,---,0.00,VWS V14.01,2013-06-11 21:07:00,
2013-06-11 17:12:00,77.8,66.0,29.85,West,260,0.0,0.0,67,0.00,,---,0.00,VWS V14.01,2013-06-11 21:12:00,
2013-06-11 17:17:00,77.7,65.4,29.85,West,260,0.0,0.0,66,0.00,,---,0.00,VWS V14.01,2013-06-11 21:17:00,
2013-06-11 17:22:00,77.5,65.7,29.85,West,260,0.0,0.0,67,0.00,,---,0.00,VWS V14.01,2013-06-11 21:22:00,
2013-06-11 17:27:00,77.1,65.8,29.85,West,260,0.0,0.0,68,0.00,,---,0.00,VWS V14.01,2013-06-11 21:27:00,
2013-06-11 17:32:00,77.1,64.9,29.85,West,260,0.0,0.0,66,0.00,,---,0.00,VWS V14.01,2013-06-11 21:32:00,
2013-06-11 17:37:00,76.9,65.2,29.85,West,260,0.0,0.0,67,0.00,,---,0.00,VWS V14.01,2013-06-11 21:37:00,
2013-06-11 17:42:00,76.8,65.0,29.85,West,260,0.0,0.0,67,0.00,,---,0.00,VWS V14.01,2013-06-11 21:42:00,
2013-06-11 17:47:00,76.8,65.0,29.85,West,260,0.0,0.0,67,0.00,,---,0.00,VWS V14.01,2013-06-11 21:47:00,
2013-06-11 17:53:00,76.6,64.8,29.85,West,260,0.0,0.0,67,0.00,,---,0.00,VWS V14.01,2013-06-11 21:53:00,
2013-06-11 17:58:00,76.6,64.8,29.85,West,260,0.0,0.0,67,0.00,,---,0.00,VWS V14.01,2013-06-11 21:58:00,
2013-06-11 18:03:00,76.2,64.0,29.85,West,260,0.0,0.0,66,0.00,,---,0.00,VWS V14.01,2013-06-11 22:03:00,
2013-06-11 18:08:00,75.7,64.4,29.85,West,260,0.0,0.0,68,0.00,,---,0.00,VWS V14.01,2013-06-11 22:08:00,
2013-06-11 18:13:00,76.0,63.4,29.85,West,260,0.0,0.0,65,0.00,,---,0.00,VWS V14.01,2013-06-11 22:13:00,
2013-06-11 18:18:00,76.0,63.4,29.85,West,260,0.0,0.0,65,0.00,,---,0.00,VWS V14.01,2013-06-11 22:18:00,
2013-06-11 18:23:00,75.7,63.5,29.85,West,260,0.0,0.0,66,0.00,,---,0.00,VWS V14.01,2013-06-11 22:23:00,
2013-06-11 18:28:00,75.3,63.2,29.85,West,260,0.0,0.0,66,0.00,,---,0.00,VWS V14.01,2013-06-11 22:28:00,
2013-06-11 18:33:00,75.3,62.8,29.85,West,260,0.0,0.0,65,0.00,,---,0.00,VWS V14.01,2013-06-11 22:33:00,
2013-06-11 18:38:00,75.0,62.8,29.85,West,260,0.0,0.0,66,0.00,,---,0.00,VWS V14.01,2013-06-11 22:38:00,
2013-06-11 18:44:00,74.8,62.7,29.85,West,260,0.0,0.0,66,0.00,,---,0.00,VWS V14.01,2013-06-11 22:44:00,
2013-06-11 18:49:00,74.6,62.9,29.85,West,260,0.0,0.0,67,0.00,,---,0.00,VWS V14.01,2013-06-11 22:49:00,
2013-06-11 18:54:00,74.2,63.0,29.85,West,260,0.0,0.0,68,0.00,,---,0.00,VWS V14.01,2013-06-11 22:54:00,
2013-06-11 18:59:00,74.2,62.6,29.85,West,260,0.0,0.0,67,0.00,,---,0.00,VWS V14.01,2013-06-11 22:59:00,
2013-06-11 19:04:00,74.2,63.0,29.82,West,260,0.0,0.0,68,0.00,,---,0.00,VWS V14.01,2013-06-11 23:04:00,
2013-06-11 19:09:00,74.6,63.3,29.82,West,260,0.0,0.0,68,0.00,,---,0.00,VWS V14.01,2013-06-11 23:09:00,
2013-06-11 19:14:00,74.6,63.3,29.82,West,260,0.0,0.0,68,0.00,,---,0.00,VWS V14.01,2013-06-11 23:14:00,
2013-06-11 19:19:00,74.6,63.3,29.85,West,260,0.0,0.0,68,0.00,,---,0.00,VWS V14.01,2013-06-11 23:19:00,
2013-06-11 19:25:00,74.4,63.2,29.85,West,260,0.0,0.0,68,0.00,,---,0.00,VWS V14.01,2013-06-11 23:25:00,
2013-06-11 19:30:00,74.2,62.6,29.85,West,260,0.0,0.0,67,0.00,,---,0.00,VWS V14.01,2013-06-11 23:30:00,
2013-06-11 19:35:00,74.2,63.0,29.85,West,260,0.0,0.0,68,0.00,,---,0.00,VWS V14.01,2013-06-11 23:35:00,
2013-06-11 19:40:00,74.1,63.2,29.85,West,260,0.0,0.0,69,0.00,,---,0.00,VWS V14.01,2013-06-11 23:40:00,
2013-06-11 19:45:00,74.2,63.4,29.85,West,260,0.0,0.0,69,0.00,,---,0.00,VWS V14.01,2013-06-11 23:45:00,
2013-06-11 19:50:00,73.9,63.5,29.85,West,260,0.0,0.0,70,0.00,,---,0.00,VWS V14.01,2013-06-11 23:50:00,
2013-06-11 19:55:00,73.7,63.3,29.85,West,260,0.0,0.0,70,0.00,,---,0.00,VWS V14.01,2013-06-11 23:55:00,
2013-06-11 20:00:00,73.7,63.3,29.85,West,260,0.0,0.0,70,0.00,,---,0.00,VWS V14.01,2013-06-12 00:00:00,
2013-06-11 20:05:00,73.3,63.0,29.85,West,260,0.0,0.0,70,0.00,,---,0.00,VWS V14.01,2013-06-12 00:05:00,
2013-06-11 20:10:00,73.3,63.4,29.85,West,260,0.0,0.0,71,0.00,,---,0.00,VWS V14.01,2013-06-12 00:10:00,
2013-06-11 20:16:00,73.3,63.4,29.85,West,260,0.0,0.0,71,0.00,,---,0.00,VWS V14.01,2013-06-12 00:16:00,
2013-06-11 20:21:00,73.2,63.2,29.85,West,260,0.0,0.0,71,0.00,,---,0.00,VWS V14.01,2013-06-12 00:21:00,
2013-06-11 20:26:00,72.8,63.3,29.85,West,260,0.0,0.0,72,0.00,,---,0.00,VWS V14.01,2013-06-12 00:26:00,
2013-06-11 20:31:00,72.6,63.1,29.85,North,350,0.0,0.0,72,0.00,,---,0.00,VWS V14.01,2013-06-12 00:31:00,
2013-06-11 20:36:00,72.4,63.3,29.85,North,350,0.0,0.0,73,0.00,,---,0.00,VWS V14.01,2013-06-12 00:36:00,
2013-06-11 20:41:00,72.3,63.5,29.85,NW,305,4.6,4.6,74,0.00,,---,0.00,VWS V14.01,2013-06-12 00:41:00,
2013-06-11 20:46:00,72.1,63.3,29.85,NW,305,0.0,0.0,74,0.00,,---,0.00,VWS V14.01,2013-06-12 00:46:00,
2013-06-11 20:51:00,71.9,63.2,29.85,NW,305,1.3,1.3,74,0.00,,---,0.00,VWS V14.01,2013-06-12 00:51:00,
2013-06-11 20:56:00,71.7,63.0,29.85,NW,305,1.3,1.3,74,0.00,,---,0.00,VWS V14.01,2013-06-12 00:56:00,
2013-06-11 21:01:00,71.4,63.0,29.85,NW,305,0.0,0.0,75,0.00,,---,0.00,VWS V14.01,2013-06-12 01:01:00,
2013-06-11 21:07:00,71.0,62.7,29.85,NE,35,0.0,0.0,75,0.00,,---,0.00,VWS V14.01,2013-06-12 01:07:00,
2013-06-11 21:12:00,71.0,62.7,29.85,NW,305,0.0,0.0,75,0.00,,---,0.00,VWS V14.01,2013-06-12 01:12:00,
2013-06-11 21:17:00,70.6,62.7,29.85,NW,305,1.3,1.3,76,0.00,,---,0.00,VWS V14.01,2013-06-12 01:17:00,
2013-06-11 21:22:00,70.5,62.5,29.85,NW,305,1.3,1.3,76,0.00,,---,0.00,VWS V14.01,2013-06-12 01:22:00,
2013-06-11 21:27:00,70.3,62.7,29.85,NW,305,1.3,1.3,77,0.00,,---,0.00,VWS V14.01,2013-06-12 01:27:00,
2013-06-11 21:32:00,70.1,62.6,29.85,NW,305,0.0,0.0,77,0.00,,---,0.00,VWS V14.01,2013-06-12 01:32:00,
2013-06-11 21:37:00,69.9,62.4,29.85,NW,305,0.0,0.0,77,0.00,,---,0.00,VWS V14.01,2013-06-12 01:37:00,
2013-06-11 21:42:00,69.7,62.2,29.85,West,260,0.0,0.0,77,0.00,,---,0.00,VWS V14.01,2013-06-12 01:42:00,
2013-06-11 21:47:00,69.6,62.4,29.85,West,260,0.0,0.0,78,0.00,,---,0.00,VWS V14.01,2013-06-12 01:47:00,
2013-06-11 21:52:00,69.2,62.4,29.85,West,260,0.0,0.0,79,0.00,,---,0.00,VWS V14.01,2013-06-12 01:52:00,
2013-06-11 21:57:00,69.0,62.6,29.85,West,260,0.0,0.0,80,0.00,,---,0.00,VWS V14.01,2013-06-12 01:57:00,
2013-06-11 22:02:00,68.8,62.4,29.88,NW,305,0.0,0.0,80,0.00,,---,0.00,VWS V14.01,2013-06-12 02:02:00,
2013-06-11 22:07:00,68.7,62.6,29.88,NW,305,0.0,0.0,81,0.00,,---,0.00,VWS V14.01,2013-06-12 02:07:00,
2013-06-11 22:13:00,68.5,62.4,29.88,NW,305,0.0,0.0,81,0.00,,---,0.00,VWS V14.01,2013-06-12 02:13:00,
2013-06-11 22:18:00,68.3,62.2,29.85,NW,305,0.0,0.0,81,0.00,,---,0.00,VWS V14.01,2013-06-12 02:18:00,
2013-06-11 22:23:00,68.1,62.1,29.85,NW,305,0.0,0.0,81,0.00,,---,0.00,VWS V14.01,2013-06-12 02:23:00,
2013-06-11 22:28:00,67.8,62.1,29.85,NW,305,0.0,0.0,82,0.00,,---,0.00,VWS V14.01,2013-06-12 02:28:00,
2013-06-11 22:33:00,67.8,62.1,29.88,West,260,0.0,0.0,82,0.00,,---,0.00,VWS V14.01,2013-06-12 02:33:00,
2013-06-11 22:38:00,67.6,61.9,29.88,West,260,0.0,0.0,82,0.00,,---,0.00,VWS V14.01,2013-06-12 02:38:00,
2013-06-11 22:43:00,67.4,62.1,29.88,West,260,0.0,0.0,83,0.00,,---,0.00,VWS V14.01,2013-06-12 02:43:00,
2013-06-11 22:48:00,67.0,62.0,29.85,West,260,0.0,0.0,84,0.00,,---,0.00,VWS V14.01,2013-06-12 02:48:00,
2013-06-11 22:54:00,67.0,62.0,29.85,West,260,0.0,0.0,84,0.00,,---,0.00,VWS V14.01,2013-06-12 02:54:00,
2013-06-11 22:59:00,66.9,61.9,29.85,West,260,0.0,0.0,84,0.00,,---,0.00,VWS V14.01,2013-06-12 02:59:00,
2013-06-11 23:04:00,66.9,61.9,29.85,West,260,0.0,0.0,84,0.00,,---,0.00,VWS V14.01,2013-06-12 03:04:00,
2013-06-11 23:09:00,66.5,61.5,29.85,South,170,0.0,0.0,84,0.00,,---,0.00,VWS V14.01,2013-06-12 03:09:00,
2013-06-11 23:14:00,66.5,61.9,29.85,South,170,0.0,0.0,85,0.00,,---,0.00,VWS V14.01,2013-06-12 03:14:00,
2013-06-11 23:19:00,66.1,61.8,29.85,South,170,0.0,0.0,86,0.00,,---,0.00,VWS V14.01,2013-06-12 03:19:00,
2013-06-11 23:24:00,66.1,61.8,29.85,South,170,0.0,0.0,86,0.00,,---,0.00,VWS V14.01,2013-06-12 03:24:00,
2013-06-11 23:29:00,66.1,61.8,29.85,South,170,0.0,0.0,86,0.00,,---,0.00,VWS V14.01,2013-06-12 03:29:00,
2013-06-11 23:34:00,66.0,62.0,29.85,South,170,0.0,0.0,87,0.00,,---,0.00,VWS V14.01,2013-06-12 03:34:00,
2013-06-11 23:39:00,65.8,61.5,29.85,South,170,0.0,0.0,86,0.00,,---,0.00,VWS V14.01,2013-06-12 03:39:00,
2013-06-11 23:44:00,65.6,61.6,29.85,SE,125,0.0,0.0,87,0.00,,---,0.00,VWS V14.01,2013-06-12 03:44:00,
2013-06-11 23:49:00,65.6,62.0,29.85,East,80,0.0,0.0,88,0.00,,---,0.00,VWS V14.01,2013-06-12 03:49:00,
2013-06-11 23:54:00,65.6,62.3,29.85,East,80,0.0,0.0,89,0.00,,---,0.00,VWS V14.01,2013-06-12 03:54:00,